STARLINK-5102

decayed
NORAD ID: 55645 Int'l Des: 2023-021 Owner: SPXS Country: US Constellation: starlink
LEOCIRCULAR

关于 STARLINK-5102

正在加载描述...

高度历史

Altitude vs Time

uPlot chart will show altitude changes over time

两行轨道根数

1 55645U 23021T 24234.25495009 .22460887 43146-5 34243-2 0 9990
2 55645 69.9874 157.8125 0010851 243.3747 275.9543 16.33757733 84095
Epoch: Aug 21, 2024 • Age: 9367 hours

当前状态

Position data unavailable
发射日期 Feb 17, 2023
运行时间 2.5 years
衰减日期 Aug 21, 2024
类型 internet

技术详情

分类 Payload
质量 305.00 kg
干质量 290.00 kg
总质量 305.00 kg
长度 0.20 m
直径 2.80 m
跨度 9.00 m
形状 Box + pan
制造商 SPXS
平台类型 Starlink
阶段状态 Unknown Transfer Status
所有者/国家 SPXS/US

大型星座

Loading constellations...